Location: Proctor
(47.8934°N, 114.3048°W)
Time: 22:21:49
(UTC+00:00)

Tiros 1 despin weight - Pass Details

Date: 27 June 2024
Orbit: 576 x 620 km, 48.2° (Epoch: 19 July)

Event Time Altitude Azimuth Distance (km) Brightness Sun altitude
Rises 23:32:30 0° 284° (WNW) 2,897 ? 38.3°
Reaches altitude 10° 23:35:04 10° 273° (W) 1,987 ? 37.9°
Maximum altitude 23:38:56 27° 215° (SW) 1,187 ? 37.2°
Drops below altitude 10° 23:42:45 10° 158° (SSE) 1,966 ? 36.6°
Sets 23:45:17 0° 146° (SE) 2,861 ? 36.2°
